This demonstration page uses our WeatherBlox Daily Observations layout. Learn more.

39.92423, -83.80882

Hourly Observations for April 18, 2019

Temp ( °F °C ) Dew Point ( °F °C ) Humidity (%) Winds ( mph kmh ) Pressure ( in mb ) Visibility ( mi km ) Precip ( " mm )
12:56 am 00:56 Clear 60 15.6 51 10.6 72 72 SSE 7 11 29.79 1009 10 16.0934 0 0
1:56 am 01:56 Mostly Clear 62 16.7 50 10 65 65 SSW 5 7 29.78 1009 10 16.0934 0 0
2:56 am 02:56 Clear 64 17.8 49 9.4 58 58 SSW 10 17 29.75 1008 10 16.0934 0 0
4:56 am 04:56 Mostly Clear 63 17.2 49 9.4 60 60 SW 13 20 29.75 1007 10 16.0934 0 0
5:56 am 05:56 Cloudy 64 17.8 49 9.4 58 58 SSW 12 19 29.74 1007 10 16.0934 0 0
6:56 am 06:56 Cloudy 65 18.3 50 10 59 59 SSW 9 15 29.75 1007 10 16.0934 0 0
7:56 am 07:56 Cloudy 65 18.3 51 10.6 61 61 SSW 8 13 29.77 1008 10 16.0934 0 0.0254
8:56 am 08:56 Mostly Sunny 66 18.9 52 11.1 61 61 SSW 14 22 29.77 1008 10 16.0934 0 0
9:56 am 09:56 Cloudy 69 20.6 55 12.8 61 61 SW 17 28 29.75 1008 10 16.0934 0 0
10:56 am 10:56 Mostly Sunny 69 20.6 55 12.8 61 61 SW 24 39 29.75 1008 10 16.0934 0 0
11:56 am 11:56 Mostly Sunny 70 21.1 55 12.8 59 59 SW 21 33 29.73 1007 10 16.0934 0 0
12:56 pm 12:56 Sunny 74 23.3 55 12.8 52 52 SSW 17 28 29.7 1006 10 16.0934 0 0
1:56 pm 13:56 Mostly Cloudy 73 22.8 53 11.7 50 50 SW 24 39 29.68 1005 10 16.0934 0 0
2:56 pm 14:56 Partly Cloudy 74 23.3 55 12.8 52 52 SSW 13 20 29.69 1005 10 16.0934 0 0
3:56 pm 15:56 Cloudy 74 23.3 54 12.2 50 50 S 15 24 29.65 1004 10 16.0934 0 0
4:56 pm 16:56 Sunny 77 25 52 11.1 42 42 SSW 16 26 29.62 1003 10 16.0934 0 0
5:56 pm 17:56 Mostly Cloudy 75 23.9 53 11.7 46 46 SSW 16 26 29.62 1003 10 16.0934 0 0
6:56 pm 18:56 Cloudy 73 22.8 52 11.1 48 48 SSW 12 19 29.6 1003 10 16.0934 0 0
7:56 pm 19:56 Cloudy 73 22.8 52 11.1 48 48 SSW 7 11 29.61 1003 10 16.0934 0 0
8:56 pm 20:56 Cloudy 68 20 54 12.2 61 61 Calm 29.61 1003 10 16.0934 0 0
9:56 pm 21:56 Cloudy 65 18.3 59 15 81 81 NNW 13 20 29.62 1003 10 16.0934 0 0
10:56 pm 22:56 Cloudy with Light Rain 60 15.6 58 14.4 93 93 NNW 16 26 29.64 1004 10 16.0934 0 0.0254
11:56 pm 23:56 Cloudy 58 14.4 55 12.8 90 90 NNW 13 20 29.61 1003 10 16.0934 0 0.0254

Powered by AerisWeather